Hourly Data Report for September 09, 2017

All times are specified in Local Standard Time (LST). Add 1 hour to adjust for Daylight Saving Time where and when it is observed.

NORTH CAPE
PRINCE EDWARD ISLAND

47°03'29.000" N
63°59'55.000" W
7.60 m
8300516
71987
WNE

Download Data

Hourly Data (September 2017)
Hourly Data Report for September 9, 2017
Temp Definition
°C
Dew Point Temp Definition
°C
Rel Hum Definition
%
Wind Dir Definition
10's deg

Wind Spd Definition
km/h
Visibility Definition
km
Stn Press Definition
kPa
Hmdx Definition


Wind Chill Definition


Weather Definition


TIME
00:00 15.4 13.7 89 5 14   101.73     LegendNANA
01:00 15.2 13.4 89 7 11   101.73     LegendNANA
02:00 15.1 13.4 90 7 14   101.71     LegendNANA
03:00 14.9 13.4 91 9 11   101.77     LegendNANA
04:00 14.7 13.3 91 7 11   101.77     LegendNANA
05:00 14.6 13.3 92 3 14   101.81     LegendNANA
06:00 13.9 12.7 93 4 20   101.89     LegendNANA
07:00 13.8 12.1 89 5 31   101.92     LegendNANA
08:00 14.4 12.4 88 6 25   101.98     LegendNANA
09:00 13.9 12.4 90 6 24   102.03     LegendNANA
10:00 15.0 12.8 87 5 25   102.05     LegendNANA
11:00 15.4 13.2 87 6 26   102.07     LegendNANA
12:00 15.6 12.4 82 4 20   102.09     LegendNANA
13:00 15.4 12.4 82 1 21   102.13     LegendNANA
14:00 15.4 12.7 84 3 18   102.13     LegendNANA
15:00 15.7 12.0 79 4 22   102.12     LegendNANA
16:00 14.9 12.5 86 4 26   102.12     LegendNANA
17:00 14.9 12.1 84 4 27   102.14     LegendNANA
18:00 14.2 12.0 87 4 26   102.16     LegendNANA
19:00 13.9 11.8 87 4 28   102.19     LegendNANA
20:00 14.2 12.1 87 4 27   102.22     LegendNANA
21:00 14.2 11.9 86 4 24   102.23     LegendNANA
22:00 13.9 11.9 88 5 20   102.28     LegendNANA
23:00 13.8 11.5 86 5 23   102.26     LegendNANA

Notes on Data Quality.

Legend

  • E = Estimated
  • M = Missing
  • NA = Not Available
  • ‡ = Partner data that is not subject to review by the National Climate Archives
Date modified: